Location: Holyhead Bay
(53.3667°N, 4.6667°W)
Time: 23:53:27
(UTC+00:00)

IRIDIUM 33 DEB - Pass Details

Date: 25 September 2021
Orbit: 583 x 600 km, 86.4° (Epoch: 15 October)

Event Time Altitude Azimuth Distance (km) Brightness Sun altitude
Rises 03:40:02 0° 4° (N) 2,859 ? -22.1°
Reaches altitude 10° 03:42:42 10° 21° (NNE) 1,947 ? -21.8°
Maximum altitude 03:46:00 21° 71° (ENE) 1,348 ? -21.4°
Drops below altitude 10° 03:49:15 10° 122° (ESE) 1,925 ? -20.9°
Sets 03:51:52 0° 138° (SE) 2,817 ? -20.6°
